Wind_Speed
5 13 16 11 18 14 10 6 14 7 11 14 9 4 22 25 23 22 14 12 11 26 20 20 18 22 17 14 14 10 9 8 10 10 8 5 6 4 8 11 6 5 2 2
9 17 9 18 16 21 19 13 11 15 18 11 16 6 11 25 28 26 26 19 16 14 23 24 22 25 24 17 6 8 7 5 9 10 9 8 8 6 7 10 9 6 4 1
8 10 7 11 14 15 17 2 12 21 27 17 9 5 12 17 25 31 31 27 22 17 8 16 18 11 15 10 3 6 6 6 8 8 8 7 8 7 8 7 7 8 4 1
7 7 6 9 14 13 13 10 11 21 22 7 11 4 18 16 17 5 33 32 32 27 20 9 13 8 3 5 3 4 6 7 7 6 6 5 11 7 10 6 6 4 1 1
11 13 18 18 17 14 13 6 1 13 20 7 11 4 12 14 21 18 17 33 35 37 27 20 15 11 4 5 3 2 2 6 7 6 5 7 6 7 4 7 7 5 4 5
15 9 16 18 11 14 7 10 4 4 18 6 12 5 9 9 8 10 18 28 32 32 35 26 21 16 7 2 6 5 4 6 7 7 6 7 6 2 1 4 10 7 6 7
12 15 13 14 16 14 8 7 7 4 1 5 8 1 6 8 15 5 11 24 17 36 34 35 29 24 16 8 7 4 6 7 7 7 5 7 6 3 2 5 8 8 7 8
11 19 18 18 17 9 12 9 5 2 4 3 5 5 2 7 21 13 6 19 13 20 32 30 35 26 22 13 10 8 7 9 10 9 7 7 7 5 5 6 3 5 4 9
9 12 6 17 10 8 5 8 5 5 6 1 5 6 4 9 11 6 10 18 24 23 22 20 29 32 23 18 13 12 10 10 11 9 9 8 8 7 6 7 5 3 4 9
5 8 6 8 14 13 11 10 5 2 4 4 6 7 5 17 18 16 16 11 17 19 17 15 26 28 21 22 16 15 12 13 12 11 9 9 9 9 9 8 6 4 3 4
9 5 7 6 7 11 13 13 10 4 3 7 4 2 16 24 27 15 14 6 9 16 12 13 27 24 23 20 22 17 14 13 12 9 9 10 10 10 12 10 9 7 4 3
5 4 10 14 7 5 6 15 9 12 6 8 9 6 14 9 15 11 11 8 4 15 16 12 15 28 30 28 23 19 17 7 4 3 4 4 9 10 11 12 12 12 10 8
4 4 12 11 6 7 12 20 12 15 16 10 7 13 15 14 12 8 10 5 1 16 22 14 13 17 26 32 25 21 19 10 5 5 4 2 2 3 3 6 8 10 12 14
2 9 12 10 7 11 8 13 20 5 14 16 11 35 23 15 8 7 5 2 2 10 17 20 19 19 18 29 28 25 24 21 15 8 8 5 4 5 7 8 8 9 11 13
7 11 8 8 10 9 9 11 9 16 16 10 20 25 13 17 11 8 4 2 4 6 9 12 20 19 19 31 32 32 33 30 26 21 18 14 12 12 15 15 17 17 17 15
7 11 8 7 9 13 12 11 9 11 12 20 25 18 18 18 16 9 4 8 11 12 8 9 13 15 21 32 32 29 39 36 28 32 26 20 21 24 23 22 20 21 22 22
3 6 9 6 10 6 16 13 14 15 13 10 16 16 19 16 10 6 5 4 8 10 7 9 13 11 15 32 43 29 36 34 34 39 33 24 21 28 27 27 25 22 22 24
13 9 4 7 7 4 12 7 5 11 12 12 13 15 12 8 7 6 1 1 3 5 7 8 9 10 18 22 21 20 15 18 19 28 28 19 13 34 28 25 27 27 27 28
1 2 4 3 2 5 2 7 10 6 17 9 9 14 13 12 7 4 2 4 7 7 9 11 12 13 11 12 16 21 22 25 25 25 20 23 25 33 29 27 32 35 31 32
5 4 4 10 1 1 7 10 16 7 17 15 9 14 11 6 6 6 7 9 10 13 14 16 15 13 14 12 12 11 12 12 13 13 16 17 23 27 34 38 33 33 30 29
3 6 5 5 6 5 11 10 9 6 9 12 11 12 10 8 11 11 8 12 15 13 10 10 11 11 7 8 11 12 13 13 12 12 14 14 18 22 24 25 28 30 31 33
4 2 2 2 4 4 9 10 10 7 10 13 13 11 11 12 11 8 7 7 6 6 10 10 13 12 10 8 7 9 11 10 8 8 9 12 16 21 23 25 27 28 30 31
4 2 3 2 1 4 4 4 5 4 7 11 13 12 13 11 8 7 6 3 3 4 6 8 9 9 10 9 7 8 11 11 10 10 10 12 14 17 18 21 24 24 24 21
4 4 6 5 8 10 9 4 4 7 12 15 15 14 11 9 7 5 5 4 6 11 12 11 6 6 8 11 8 8 11 12 12 13 16 16 13 15 17 17 20 18 17 15
10 10 9 9 8 8 10 13 16 17 12 11 13 15 15 12 12 11 10 10 13 15 13 10 8 8 8 9 11 11 11 11 9 9 9 9 12 15 17 16 16 15 16 16
16 15 14 14 14 17 16 18 16 15 15 18 14 9 14 11 12 12 14 14 15 16 16 14 7 8 10 10 10 10 10 11 9 10 11 12 10 11 9 7 12 10 10 7
Wind_Direction
223 269 263 276 301 300 343 222 242 233 145 55 80 123 193 195 202 209 206 196 171 197 198 215 231 239 241 243 256 269 250 225 233 240 228 198 166 200 177 156 171 133 135 70
223 245 279 307 300 298 302 270 261 216 190 129 91 20 245 213 208 212 220 214 206 198 210 218 235 239 235 237 238 243 233 211 206 225 219 221 198 141 116 139 151 153 141 111
231 239 306 316 329 330 341 178 189 193 181 176 155 119 173 210 218 215 219 222 219 222 206 208 225 234 232 218 222 261 240 223 214 223 223 216 212 204 148 159 157 150 133 325
239 228 273 321 317 336 343 103 165 173 177 190 192 113 192 192 206 244 206 224 214 225 226 230 229 247 256 146 173 245 234 227 229 233 237 229 207 166 179 170 167 135 118 155
237 290 290 273 290 314 319 12 59 191 189 216 203 167 188 200 219 205 190 211 212 215 229 229 251 248 27 209 211 159 302 250 239 250 242 214 186 180 206 185 168 175 176 154
259 255 269 273 296 256 313 320 333 255 209 219 197 210 130 176 212 206 219 201 211 218 226 234 246 249 246 249 187 236 286 328 255 251 234 209 196 205 139 207 191 203 175 150
256 259 257 261 260 243 262 303 337 69 264 248 142 313 48 65 26 320 208 208 197 218 225 224 239 243 240 251 253 250 273 305 304 244 235 233 226 196 168 186 200 197 175 164
290 303 306 230 242 263 226 283 288 239 191 241 165 33 51 36 348 330 346 204 209 207 218 220 227 246 248 252 249 256 269 279 320 266 245 229 230 204 187 194 181 195 195 193
295 310 84 202 218 223 180 253 297 121 122 203 106 63 80 29 13 103 130 176 204 204 205 221 218 237 249 251 257 272 272 277 299 291 254 239 229 218 212 211 215 212 218 228
305 319 57 278 221 233 247 273 287 109 145 249 70 63 26 56 66 77 57 198 201 200 201 213 217 229 250 251 258 263 265 284 290 293 262 251 229 221 220 218 211 230 168 167
319 287 319 23 334 287 232 249 265 262 180 143 118 102 87 98 87 101 43 104 190 199 212 205 212 220 249 251 252 257 264 291 274 286 263 247 232 223 228 227 224 235 240 211
335 353 326 345 310 338 262 2 328 281 157 116 108 121 106 92 93 80 56 28 216 197 210 211 193 212 234 242 246 251 260 272 217 105 33 264 236 227 227 231 234 241 249 244
308 28 13 11 48 76 28 11 32 120 133 140 120 148 128 120 107 93 72 65 214 214 224 213 194 212 219 234 243 248 252 247 202 186 212 290 245 216 225 226 231 242 249 254
75 39 35 357 311 355 340 9 39 42 159 163 148 143 142 131 132 127 114 236 222 213 229 217 219 210 212 225 239 248 254 249 244 237 226 261 314 309 293 279 261 246 242 246
52 44 21 23 36 4 343 351 354 37 144 147 144 164 170 155 166 163 156 254 269 273 238 226 239 239 218 214 229 235 246 246 243 236 234 244 259 256 254 258 259 255 250 244
37 41 9 28 42 37 74 58 45 70 132 125 134 152 157 158 127 111 33 317 295 280 241 240 240 247 238 216 223 228 244 234 226 237 234 232 240 261 256 247 248 255 256 255
306 37 351 23 5 98 38 26 19 94 103 127 151 160 168 162 158 197 281 286 288 284 295 254 264 263 241 233 233 246 233 235 232 228 227 243 253 244 259 251 245 247 253 253
294 279 309 326 353 50 6 351 54 93 121 130 143 147 162 191 214 254 51 72 352 334 331 337 316 264 255 259 259 276 263 232 242 276 287 279 279 246 243 259 258 249 247 248
81 236 267 265 352 316 128 62 129 176 144 152 122 147 165 208 248 287 268 232 293 292 310 312 306 291 285 286 277 264 266 262 263 268 263 259 249 239 253 257 263 259 253 251
200 238 258 235 140 162 160 131 137 133 120 178 166 170 202 212 249 289 279 277 288 294 297 298 294 280 269 266 260 258 254 249 247 248 259 263 261 253 257 262 261 261 263 266
190 220 280 254 231 166 188 209 223 231 179 174 193 180 187 220 258 285 304 320 325 326 338 341 350 344 321 284 268 265 263 262 267 272 271 266 261 240 259 270 274 274 275 275
180 196 60 317 219 180 220 234 242 250 197 210 231 256 269 284 288 281 311 343 351 1 349 356 8 15 15 343 304 283 284 281 275 255 243 237 244 252 260 262 266 273 275 278
214 250 251 270 295 239 275 262 260 260 237 233 244 259 282 286 285 234 209 179 262 1 356 330 343 0 4 8 355 319 301 291 281 272 285 292 273 265 263 263 265 269 276 273
171 209 256 264 269 291 296 289 259 280 294 279 271 269 252 247 249 271 262 250 276 293 299 325 329 321 336 350 354 341 332 324 311 301 298 295 289 306 307 300 274 271 270 251
253 250 261 264 246 236 250 270 281 300 303 293 291 270 240 233 244 264 260 274 286 293 302 300 289 299 317 334 346 353 345 342 335 325 327 335 322 317 312 313 312 292 274 256
246 262 260 256 260 261 256 261 275 276 282 297 292 255 210 226 235 236 241 263 279 281 289 296 270 269 295 300 311 332 339 343 347 341 330 330 318 322 358 347 324 283 232 211
Height
3190 3187 3185 3187 3192 3193 3194 3192 3190 3196 3199 3196 3198 3202 3204 3205 3206 3208 3208 3208 3209 3213 3215 3216 3216 3217 3219 3219 3221 3223 3225 3226 3226 3225 3226 3226 3226 3227 3227 3226 3228 3229 3229 3229
3188 3183 3183 3184 3188 3187 3188 3189 3189 3192 3195 3196 3192 3194 3201 3203 3205 3208 3210 3209 3209 3211 3214 3217 3218 3219 3220 3221 3222 3223 3224 3225 3226 3225 3225 3225 3227 3227 3226 3227 3228 3228 3228 3228
3186 3182 3184 3184 3183 3185 3184 3180 3183 3187 3191 3189 3188 3189 3195 3200 3203 3203 3206 3209 3210 3211 3212 3214 3216 3218 3219 3221 3221 3222 3223 3224 3225 3224 3224 3225 3226 3227 3227 3229 3229 3228 3228 3228
3186 3185 3183 3183 3183 3185 3184 3183 3184 3184 3187 3185 3187 3193 3195 3194 3193 3195 3199 3205 3207 3208 3211 3212 3213 3216 3217 3219 3220 3222 3223 3224 3224 3223 3224 3224 3226 3227 3229 3229 3229 3227 3228 3230
3184 3184 3184 3183 3182 3185 3187 3186 3184 3185 3186 3185 3186 3188 3191 3189 3187 3188 3191 3198 3203 3205 3207 3209 3211 3215 3218 3218 3221 3222 3222 3222 3222 3223 3223 3224 3226 3227 3228 3228 3228 3228 3230 3230
3181 3182 3181 3179 3180 3184 3184 3185 3187 3185 3185 3183 3181 3185 3190 3194 3196 3194 3194 3197 3201 3202 3205 3208 3210 3214 3217 3220 3220 3222 3222 3222 3223 3224 3225 3226 3226 3226 3226 3227 3228 3229 3230 3230
3179 3178 3179 3180 3180 3180 3183 3184 3184 3187 3187 3184 3185 3187 3190 3193 3193 3191 3190 3191 3193 3200 3201 3206 3207 3211 3215 3217 3220 3221 3223 3223 3223 3225 3226 3227 3227 3226 3226 3228 3229 3229 3230 3230
3179 3177 3175 3176 3177 3177 3180 3183 3185 3186 3189 3184 3187 3191 3191 3191 3189 3187 3185 3185 3192 3194 3197 3201 3205 3208 3212 3215 3217 3220 3221 3222 3222 3223 3225 3226 3226 3227 3227 3228 3229 3229 3229 3230
3178 3174 3170 3171 3175 3178 3178 3181 3182 3180 3184 3184 3191 3194 3193 3192 3188 3186 3185 3183 3189 3195 3196 3198 3201 3205 3211 3213 3215 3218 3219 3220 3221 3221 3222 3224 3225 3226 3227 3227 3227 3228 3229 3230
3178 3176 3174 3174 3175 3177 3178 3180 3180 3179 3186 3186 3190 3193 3193 3193 3187 3187 3186 3187 3192 3195 3196 3198 3201 3202 3209 3212 3215 3217 3217 3218 3219 3220 3220 3221 3223 3224 3225 3226 3226 3227 3229 3229
3176 3176 3175 3174 3175 3175 3176 3177 3177 3177 3177 3180 3190 3197 3193 3191 3189 3190 3190 3189 3192 3195 3199 3200 3201 3202 3208 3210 3212 3215 3216 3216 3216 3218 3218 3219 3220 3221 3223 3224 3225 3226 3227 3228
3175 3175 3175 3174 3173 3172 3174 3177 3175 3173 3175 3177 3182 3195 3192 3191 3190 3189 3187 3189 3189 3189 3194 3198 3198 3200 3205 3206 3208 3211 3213 3214 3214 3215 3216 3217 3218 3218 3219 3221 3223 3223 3224 3226
3175 3175 3174 3172 3173 3172 3172 3173 3172 3171 3172 3175 3178 3191 3191 3192 3191 3190 3190 3193 3192 3192 3195 3196 3196 3199 3201 3202 3203 3205 3208 3210 3211 3211 3213 3215 3216 3216 3218 3219 3220 3220 3221 3221
3175 3176 3175 3178 3175 3174 3172 3173 3173 3172 3172 3175 3178 3183 3188 3189 3191 3191 3192 3192 3194 3196 3195 3194 3196 3197 3195 3196 3199 3203 3204 3206 3208 3209 3210 3213 3214 3215 3216 3217 3217 3217 3217 3217
3175 3174 3175 3175 3174 3173 3171 3172 3170 3170 3173 3174 3179 3184 3187 3190 3191 3191 3192 3192 3192 3192 3191 3192 3192 3193 3194 3191 3193 3198 3200 3206 3207 3209 3210 3211 3212 3212 3213 3213 3212 3213 3212 3213
3175 3175 3174 3174 3173 3172 3171 3172 3169 3170 3173 3176 3179 3184 3186 3187 3190 3193 3192 3192 3189 3186 3187 3188 3187 3188 3189 3189 3192 3196 3197 3199 3201 3204 3206 3207 3206 3207 3208 3206 3205 3206 3208 3209
3175 3175 3174 3175 3173 3172 3174 3173 3172 3172 3173 3177 3179 3181 3182 3186 3189 3192 3193 3191 3187 3185 3185 3184 3184 3186 3185 3188 3186 3180 3185 3190 3189 3192 3189 3199 3196 3194 3197 3199 3197 3198 3200 3201
3173 3175 3176 3175 3175 3176 3178 3174 3172 3173 3176 3178 3179 3181 3183 3185 3186 3187 3188 3188 3186 3185 3184 3183 3181 3183 3182 3181 3184 3183 3182 3184 3178 3187 3184 3184 3185 3187 3187 3189 3190 3189 3191 3192
3172 3173 3175 3175 3176 3177 3177 3175 3174 3171 3177 3179 3178 3180 3183 3184 3184 3183 3184 3184 3184 3184 3183 3183 3182 3182 3181 3179 3179 3184 3184 3185 3186 3185 3183 3181 3179 3180 3178 3179 3180 3182 3182 3184
3170 3171 3173 3174 3175 3176 3176 3177 3175 3175 3178 3180 3181 3181 3180 3180 3181 3180 3179 3179 3180 3180 3180 3180 3179 3178 3178 3179 3180 3179 3179 3179 3178 3179 3177 3175 3172 3171 3172 3172 3174 3176 3177 3178
3168 3169 3170 3171 3172 3173 3174 3175 3176 3176 3181 3178 3179 3180 3180 3180 3181 3179 3177 3175 3174 3172 3172 3171 3171 3172 3172 3172 3172 3171 3171 3172 3170 3168 3167 3167 3166 3167 3168 3167 3168 3169 3169 3168
3168 3168 3169 3169 3169 3171 3171 3173 3175 3176 3175 3177 3178 3179 3178 3178 3176 3176 3175 3174 3172 3172 3170 3170 3170 3169 3168 3167 3166 3166 3165 3164 3164 3164 3163 3163 3161 3161 3161 3161 3162 3159 3159 3159
3168 3168 3168 3170 3169 3168 3169 3171 3173 3174 3175 3176 3176 3176 3175 3172 3172 3173 3173 3173 3173 3173 3172 3171 3170 3169 3168 3166 3164 3162 3160 3160 3159 3159 3157 3156 3155 3153 3154 3154 3153 3153 3153 3152
3166 3166 3167 3168 3167 3167 3168 3169 3170 3171 3172 3172 3173 3172 3172 3171 3170 3170 3170 3171 3172 3172 3171 3169 3168 3168 3167 3165 3163 3161 3159 3158 3157 3156 3154 3152 3151 3150 3150 3148 3147 3148 3147 3147
3165 3165 3165 3166 3166 3166 3166 3166 3167 3168 3168 3169 3169 3168 3168 3168 3169 3169 3168 3169 3169 3168 3168 3168 3166 3165 3165 3163 3162 3160 3157 3155 3153 3153 3151 3150 3151 3149 3146 3146 3146 3145 3142 3142
3161 3162 3162 3162 3164 3164 3165 3164 3165 3165 3165 3165 3162 3162 3164 3165 3165 3166 3166 3167 3167 3166 3165 3165 3164 3163 3162 3161 3160 3159 3157 3155 3153 3151 3150 3149 3147 3145 3143 3142 3144 3142 3139 3138